Date String (YYYY-MM-DD hh:mm:ss) UTC,Instrument flags,Ambient pressure (hPa),Sample flow (lpm),Bypass flow (lpm),Sample temperature (°C),Ambient temperature (°C),ASC tube jacket temperature (°C),LED temperature (°C),Box temperature (°C),Sample RH (%),Span deviation,Mass concentration (μg/m³),Mass concentration (μg/m³),Mass concentration (μg/m³)
DateTimeUTC,F1_M11,P_M11,Q1_M11,Q2_M11,T1_M11,T2_M11,T3_M11,T4_M11,T5_M11,U1_M11,ZSPAN_M11,X0_M11,X2_M11,X1_M11
2023-05-25 08:00:00,,0828.8,5.00,0.00,29.3,27.7,00.0,37.6,30.9,23.2,0003.9,0010.00,0006.52,0006.20
2023-05-25 08:01:00,,0828.7,5.01,0.00,29.3,27.7,00.0,37.6,30.9,23.0,0003.7,0009.93,0006.44,0006.12
2023-05-25 08:02:00,,0828.8,5.00,0.00,29.3,27.7,00.0,37.6,30.9,22.6,0003.4,0009.86,0006.37,0006.08
2023-05-25 08:03:00,,0828.8,5.00,0.00,29.3,27.7,00.0,37.6,30.9,22.5,0003.5,0009.87,0006.34,0006.04
2023-05-25 08:04:00,,0828.8,5.00,0.00,29.3,27.7,00.0,37.6,30.9,22.6,0003.6,0009.90,0006.36,0006.04
2023-05-25 08:05:00,,0828.8,5.00,0.00,29.3,27.7,00.0,37.6,30.9,22.6,0003.6,0009.81,0006.35,0006.03
2023-05-25 08:06:00,,0828.8,5.00,0.00,29.3,27.7,00.0,37.6,30.9,23.0,0003.6,0009.83,0006.32,0006.00
2023-05-25 08:07:00,,0828.8,5.00,0.00,29.3,27.7,00.0,37.6,30.9,22.9,0003.5,0009.87,0006.32,0005.99
2023-05-25 08:08:00,,0828.8,4.99,0.00,29.3,27.7,00.0,37.7,30.9,22.8,0003.5,0009.85,0006.29,0005.97
2023-05-25 08:09:00,,0828.9,5.00,0.00,29.3,27.7,00.0,37.7,30.9,22.7,0003.4,0009.74,0006.20,0005.91
2023-05-25 08:10:00,,0829.0,5.00,0.00,29.3,27.7,00.0,37.7,30.9,22.7,0003.3,0009.67,0006.15,0005.86
2023-05-25 08:11:00,,0829.0,5.00,0.00,29.3,27.7,00.0,37.7,30.9,22.5,0003.1,0009.61,0006.12,0005.84
2023-05-25 08:12:00,,0829.0,5.01,0.00,29.3,27.7,00.0,37.7,30.9,22.4,0003.3,0009.50,0006.08,0005.80
2023-05-25 08:13:00,,0829.0,5.00,0.00,29.3,27.7,00.0,37.7,30.9,22.4,0003.6,0009.51,0006.07,0005.79
2023-05-25 08:14:00,,0828.9,5.00,0.00,29.3,27.7,00.0,37.7,30.9,22.5,0003.7,0009.50,0006.09,0005.81
2023-05-25 08:15:00,,0828.9,5.00,0.00,29.3,27.7,00.0,37.7,30.9,22.5,0003.7,0009.45,0006.07,0005.79
2023-05-25 08:16:00,,0828.9,5.00,0.00,29.3,27.7,00.0,37.7,30.9,22.6,0003.8,0009.52,0006.08,0005.79
2023-05-25 08:17:00,,0828.9,5.00,0.00,29.4,27.7,00.0,37.7,30.9,22.7,0003.9,0009.60,0006.09,0005.81
2023-05-25 08:18:00,,0829.0,5.00,0.00,29.4,27.7,00.0,37.7,30.9,22.9,0003.9,0010.08,0006.15,0005.83
2023-05-25 08:19:00,,0828.9,5.00,0.00,29.4,27.7,00.0,37.7,30.9,22.9,0003.6,0010.45,0006.23,0005.86
2023-05-25 08:20:00,,0828.9,5.00,0.00,29.4,27.7,00.0,37.7,30.9,23.2,0003.6,0010.60,0006.31,0005.92
2023-05-25 08:21:00,,0828.9,5.00,0.00,29.4,27.7,00.0,37.7,30.9,23.0,0003.7,0010.71,0006.38,0005.96
2023-05-25 08:22:00,,0828.9,5.00,0.00,29.4,27.7,00.0,37.7,30.9,22.8,0003.8,0010.79,0006.43,0005.99
2023-05-25 08:23:00,,0828.9,5.00,0.00,29.4,27.7,00.0,37.7,30.9,22.6,0003.8,0010.89,0006.48,0006.01
2023-05-25 08:24:00,,0828.9,4.99,0.00,29.4,27.7,00.0,37.7,30.9,22.8,0003.6,0011.42,0006.52,0006.05
2023-05-25 08:25:00,,0828.9,5.00,0.00,29.4,27.7,00.0,37.7,30.9,22.8,0003.3,0011.83,0006.55,0006.06
2023-05-25 08:26:00,,0828.9,5.00,0.00,29.4,27.7,00.0,37.7,30.9,22.9,0003.0,0012.27,0006.60,0006.09
2023-05-25 08:27:00,,0828.9,5.00,0.00,29.4,27.7,00.0,37.7,30.9,22.8,0003.0,0012.46,0006.63,0006.11
2023-05-25 08:28:00,,0829.0,5.00,0.00,29.4,27.7,00.0,37.7,30.9,22.8,0003.0,0012.49,0006.68,0006.14
2023-05-25 08:29:00,,0828.9,5.00,0.00,29.4,27.7,00.0,37.7,30.9,22.6,0003.0,0012.17,0006.69,0006.14
2023-05-25 08:30:00,,0828.9,4.99,0.00,29.4,27.7,00.0,37.7,30.9,22.7,0003.3,0012.16,0006.70,0006.14
2023-05-25 08:31:00,,0828.9,5.00,0.00,29.4,27.7,00.0,37.7,30.9,23.5,0003.4,0012.75,0006.76,0006.17
2023-05-25 08:32:00,,0829.0,5.00,0.00,29.4,27.7,00.0,37.7,30.9,23.5,0003.4,0012.96,0006.79,0006.20
2023-05-25 08:33:00,,0828.9,5.00,0.00,29.4,27.6,00.0,37.7,30.9,22.9,0003.3,0013.10,0006.82,0006.21
2023-05-25 08:34:00,,0828.9,5.00,0.00,29.4,27.6,00.0,37.7,30.9,22.6,0003.1,0013.14,0006.82,0006.21
2023-05-25 08:35:00,,0829.0,5.00,0.00,29.4,27.6,00.0,37.7,30.9,22.8,0002.9,0012.96,0006.86,0006.22
2023-05-25 08:36:00,,0829.0,5.00,0.00,29.4,27.6,00.0,37.7,30.9,23.2,0003.2,0012.62,0006.95,0006.28
2023-05-25 08:37:00,,0829.1,5.00,0.00,29.3,27.6,00.0,37.7,30.9,22.9,0003.4,0012.43,0006.98,0006.31
2023-05-25 08:38:00,,0829.1,5.00,0.00,29.3,27.6,00.0,37.7,30.9,22.4,0003.4,0012.18,0006.93,0006.29
2023-05-25 08:39:00,,0829.1,5.00,0.00,29.4,27.6,00.0,37.7,30.9,23.4,0003.4,0012.32,0006.97,0006.30
2023-05-25 08:40:00,,0829.1,4.99,0.00,29.3,27.6,00.0,37.7,30.9,23.3,0003.4,0012.45,0007.02,0006.32
2023-05-25 08:41:00,,0829.1,5.00,0.00,29.4,27.7,00.0,37.7,30.9,23.5,0003.2,0012.40,0007.05,0006.35
2023-05-25 08:42:00,,0829.1,5.00,0.00,29.4,27.7,00.0,37.7,30.9,23.2,0002.8,0012.26,0006.99,0006.33
2023-05-25 08:43:00,,0829.0,5.00,0.00,29.4,27.7,00.0,37.7,30.9,23.0,0003.0,0012.17,0006.96,0006.30
2023-05-25 08:44:00,,0829.0,5.00,0.00,29.4,27.7,00.0,37.7,30.9,23.1,0003.0,0012.14,0006.96,0006.31
2023-05-25 08:45:00,,0829.0,5.01,0.00,29.4,27.7,00.0,37.7,30.9,23.5,0003.1,0012.19,0007.05,0006.42
2023-05-25 08:46:00,,0829.0,5.01,0.00,29.3,27.7,00.0,37.7,30.9,23.3,0003.4,0012.17,0007.07,0006.48
2023-05-25 08:47:00,,0829.0,5.00,0.00,29.3,27.7,00.0,37.7,30.9,23.3,0003.4,0012.04,0007.05,0006.50
2023-05-25 08:48:00,,0829.0,4.99,0.00,29.3,27.6,00.0,37.7,30.9,23.3,0003.3,0011.95,0007.05,0006.51
2023-05-25 08:49:00,,0828.9,4.99,0.00,29.3,27.7,00.0,37.7,30.9,23.5,0003.1,0012.06,0007.16,0006.60
2023-05-25 08:50:00,,0829.0,4.99,0.00,29.3,27.7,00.0,37.7,30.9,23.6,0003.1,0012.10,0007.21,0006.66
2023-05-25 08:51:00,,0829.0,5.00,0.00,29.3,27.6,00.0,37.7,30.9,23.5,0003.3,0011.95,0007.19,0006.71
2023-05-25 08:52:00,,0828.9,5.01,0.00,29.3,27.6,00.0,37.7,30.9,23.7,0003.4,0011.89,0007.20,0006.78
2023-05-25 08:53:00,,0829.0,5.01,0.00,29.3,27.6,00.0,37.7,30.9,23.6,0003.4,0012.42,0007.26,0006.83
2023-05-25 08:54:00,,0829.0,5.01,0.00,29.3,27.6,00.0,37.7,30.9,23.6,0003.3,0012.35,0007.33,0006.90
2023-05-25 08:55:00,,0829.0,5.00,0.00,29.3,27.6,00.0,37.7,30.9,23.6,0003.3,0013.18,0007.36,0006.96
2023-05-25 08:56:00,,0828.9,5.00,0.00,29.3,27.6,00.0,37.7,30.9,23.5,0003.3,0013.45,0007.40,0006.96
2023-05-25 08:57:00,,0828.9,4.99,0.00,29.3,27.6,00.0,37.7,30.9,23.4,0003.2,0013.79,0007.45,0006.97
2023-05-25 08:58:00,,0829.0,4.99,0.00,29.3,27.6,00.0,37.7,30.9,23.5,0003.3,0014.02,0007.52,0006.99
2023-05-25 08:59:00,,0829.0,5.00,0.00,29.3,27.6,00.0,37.7,30.9,23.7,0003.4,0014.30,0007.61,0007.02
